ATLAS CENTAUR 2 1 00694U 63047A 26104.74111714 .00001807 00000+0 21121-3 0 9993 2 00694 30.3544 354.1452 0546721 38.0536 325.7418 14.12239840136727 THOR AGENA D R/B 1 00733U 64002A 26104.59484984 .00000099 00000+0 52484-4 0 9993 2 00733 99.1199 119.8872 0033425 152.4411 207.8552 14.34038880243449 SL-3 R/B 1 00877U 64053B 26104.68793934 .00000061 00000+0 36111-4 0 9994 2 00877 65.0770 225.6921 0080876 280.9294 78.2714 14.61393900272050 SL-8 R/B 1 02802U 67045B 26104.76737778 .00000192 00000+0 60865-4 0 9999 2 02802 74.0096 280.7078 0065171 279.2158 80.1632 14.45649635 94231 SL-8 R/B 1 03230U 68040B 26104.64400366 .00001899 00000+0 14156-3 0 9994 2 03230 74.0301 240.2071 0023534 49.0884 311.2337 15.03508870 95417 OAO 2 1 03597U 68110A 26104.58737823 .00000104 00000+0 33130-4 0 9994 2 03597 34.9937 64.7896 0005121 130.4336 229.6802 14.47327340 24303 ISIS 1 1 03669U 69009A 26104.38458091 .00000082 00000+0 49583-4 0 9991 2 03669 88.4470 151.4082 1707472 17.1479 348.0605 11.30422663352560 SERT 2 1 04327U 70009A 26104.42178975 .00000006 00000+0 65281-4 0 9999 2 04327 99.2803 45.5694 0005797 75.6929 32.2640 13.58734191784747 SL-3 R/B 1 05118U 71028B 26104.83283488 .00026567 00000+0 27476-3 0 9994 2 05118 81.2380 7.2853 0016312 146.5860 213.6428 15.64402853994317 ASTEX 1 1 05560U 71089A 26104.61905683 .00000215 00000+0 54815-4 0 9996 2 05560 92.7065 163.3671 0014172 330.7750 29.2662 14.50805274867514 SL-8 R/B 1 05730U 71119B 26104.75882207 .00004847 00000+0 25415-3 0 9998 2 05730 73.8834 108.2625 0545601 67.2515 298.5336 14.38487933660672 OAO 3 (COPERNICUS) 1 06153U 72065A 26104.38151399 .00000171 00000+0 39459-4 0 9999 2 06153 35.0051 93.9561 0006025 93.5063 53.5682 14.60025497851419 ATLAS CENTAUR R/B 1 06155U 72065B 26104.29965200 .00000728 00000+0 10213-3 0 9999 2 06155 35.0010 97.0450 0033998 309.1824 50.5859 14.77787344846532 SL-8 R/B 1 08459U 75112B 26104.81274084 .00000078 00000+0 34315-4 0 9993 2 08459 74.0601 312.4640 0015023 31.6548 328.5506 14.38223086637062 SL-3 R/B 1 10114U 77057B 26104.83512167 .00007408 00000+0 15099-3 0 9994 2 10114 97.5808 278.3857 0007942 145.9747 214.2012 15.46519473673918 SEASAT 1 1 10967U 78064A 26104.81113738 .00000133 00000+0 75512-4 0 9993 2 10967 108.0072 201.2872 0002796 267.1146 92.9679 14.46191859511733 SL-14 R/B 1 11267U 79011B 26104.86468852 .00000394 00000+0 36322-4 0 9990 2 11267 82.5235 62.2356 0014564 299.8342 60.1429 14.91957301534177 SL-8 R/B 1 11574U 79089B 26104.81211803 .00000132 00000+0 47808-4 0 9994 2 11574 74.0712 24.1754 0016092 190.9447 169.1362 14.42374733441315 SL-14 R/B 1 11672U 80005B 26104.83444769 .00000360 00000+0 33741-4 0 9998 2 11672 82.5112 272.9378 0016774 46.9489 313.3132 14.90972669481878 SL-8 R/B 1 12139U 81003B 26104.80934530 .00009992 00000+0 24789-3 0 9994 2 12139 82.9369 256.5807 0257541 53.1538 309.3010 15.12567468320137 SL-3 R/B 1 12465U 81046B 26104.85347513 .00007241 00000+0 16323-3 0 9997 2 12465 81.2296 246.2812 0018076 252.5567 107.3700 15.42900296444005 SL-3 R/B 1 12904U 81103B 26104.80935360 .00002385 00000+0 10378-3 0 9995 2 12904 81.1600 171.0570 0013719 160.5551 199.6207 15.21785161978723 SL-3 R/B 1 13068U 82013B 26104.80351640 .00002387 00000+0 10166-3 0 9998 2 13068 81.1713 118.4281 0023323 60.1973 300.1574 15.22326681409846 SL-3 R/B 1 13154U 82039B 26104.83337668 .00000956 00000+0 56467-4 0 9994 2 13154 81.1523 174.2767 0027928 202.3605 157.6405 15.10275610387099 SL-3 R/B 1 13403U 82079B 26104.81937617 .00002509 00000+0 97900-4 0 9996 2 13403 81.1459 150.4076 0024985 46.5109 313.8196 15.25240613383203 SL-14 R/B 1 13553U 82092B 26104.74035127 .00000257 00000+0 25980-4 0 9991 2 13553 82.5645 107.6684 0020369 177.0593 356.6168 14.86698475334286 SL-3 R/B 1 13819U 83010B 26104.85402977 .00007518 00000+0 14513-3 0 9996 2 13819 81.1020 317.8679 0015007 282.0631 77.8932 15.47511197363539 SL-3 R/B 1 14208U 83075B 26104.84125729 .00006512 00000+0 16791-3 0 9999 2 14208 97.6131 110.8123 0023252 99.9957 260.3913 15.39276226335718 COSMOS 1536 1 14699U 84013A 26104.37090227 .00003913 00000+0 15818-3 0 9999 2 14699 82.5430 72.3584 0015270 149.8709 210.3410 15.24329806278058 SL-14 R/B 1 14820U 84027B 26104.31420833 .00000288 00000+0 30075-4 0 9999 2 14820 82.5440 211.6042 0017178 211.3006 148.7189 14.86015333252925 SL-8 R/B 1 15483U 85006B 26104.63912509 .00000112 00000+0 45675-4 0 9992 2 15483 74.0465 194.9987 0017243 101.2367 5.6878 14.37807500159197 SL-12 R/B(2) 1 15772U 85042D 26104.52169666 .00000097 00000+0 65028-4 0 9995 2 15772 71.1105 12.0260 0033058 68.6305 103.3804 14.21992773119484 SL-14 R/B 1 15945U 85069B 26104.62467558 .00000259 00000+0 26400-4 0 9999 2 15945 82.5292 351.1524 0020339 74.6608 285.6854 14.86470625178178 SL-16 R/B 1 16182U 85097B 26104.66787153 .00000239 00000+0 14383-3 0 9998 2 16182 71.0027 64.8048 0008654 215.6616 317.1719 14.16605296 92322 SL-14 R/B 1 16496U 86006B 26104.59244787 .00000508 00000+0 50916-4 0 9992 2 16496 82.5280 225.9446 0077209 152.7146 207.8161 14.86878394154548 COSMOS 1743 1 16719U 86034A 26104.81675406 .00027862 00000+0 32065-3 0 9998 2 16719 82.5309 35.8241 0006947 128.9442 231.2436 15.61806443185881 SL-14 R/B 1 16792U 86046B 26104.84184664 .00000280 00000+0 29270-4 0 9996 2 16792 82.4833 46.0198 0024631 107.3317 253.0597 14.85626957131774 SL-14 R/B 1 16882U 86055B 26104.72229328 .00000267 00000+0 27933-4 0 9999 2 16882 82.5172 92.7937 0018061 208.7276 324.1199 14.85675589124719 AJISAI (EGS) 1 16908U 86061A 26104.85727198 -.00000088 00000+0 68295-4 0 9995 2 16908 50.0116 342.1350 0011392 19.9868 65.7373 12.44515758472505 SL-14 R/B 1 17567U 87024B 26104.86209293 .00000278 00000+0 28757-4 0 9998 2 17567 82.5281 58.7591 0019291 137.2247 223.0475 14.86167958 93502 COSMOS 1833 1 17589U 87027A 26104.68001808 -.00000315 00000+0 -14254-3 0 9997 2 17589 70.9163 250.3661 0022604 159.6727 200.5299 14.13038763 15405 SL-16 R/B 1 17590U 87027B 26104.61973977 -.00000243 00000+0 -96833-4 0 9991 2 17590 71.0035 200.7795 0003050 49.5723 310.5667 14.17169306 20433 SL-14 R/B 1 17912U 87038B 26104.80822747 .00000251 00000+0 26253-4 0 9996 2 17912 82.4988 262.7708 0020323 48.4069 311.8884 14.85403436 84591 COSMOS 1844 1 17973U 87041A 26104.88881315 -.00000103 00000+0 -28386-4 0 9998 2 17973 70.9002 317.8248 0032342 324.5667 35.3306 14.14564843 8702 SL-14 R/B 1 18153U 87055B 26104.84609095 .00000241 00000+0 24920-4 0 9994 2 18153 82.4977 314.9532 0019168 252.9372 106.9744 14.85662695 75307 COSMOS 1867 1 18187U 87060A 26104.62948094 -.00000057 00000+0 16208-4 0 9994 2 18187 65.0110 206.0530 0015172 280.5542 79.3833 14.31508633 25080 SL-14 R/B 1 18749U 88001B 26104.70923787 .00000236 00000+0 24338-4 0 9996 2 18749 82.5141 161.4921 0019496 117.2866 243.0338 14.85564618 47378 COSMOS 1933 1 18958U 88020A 26104.64578535 .00002666 00000+0 12841-3 0 9993 2 18958 82.5149 215.3303 0005432 81.6745 278.5105 15.18328460 55684 SL-3 R/B 1 19046U 88032B 26104.87137128 .00002767 00000+0 12935-3 0 9995 2 19046 97.5226 88.0163 0027601 106.7687 253.6580 15.20305274 57606 SL-16 R/B 1 19120U 88039B 26104.84573233 .00000029 00000+0 36610-4 0 9999 2 19120 71.0169 352.0977 0024020 283.0866 76.7578 14.19622647963519 COSMOS 1953 1 19210U 88050A 26104.75524866 .00003852 00000+0 13507-3 0 9996 2 19210 82.5050 121.9527 0010739 7.8952 352.2455 15.29082029 43295 SL-8 R/B 1 19257U 88053B 26104.87756042 .00000094 00000+0 38890-4 0 9994 2 19257 74.0485 45.7569 0021015 219.7431 195.8633 14.38938095981807 COSMOS 1975 1 19573U 88093A 26104.66971064 .00003100 00000+0 11014-3 0 9998 2 19573 82.5169 81.5429 0012891 51.3109 308.9281 15.28546669 24905 SL-14 R/B 1 19574U 88093B 26104.83074007 .00000235 00000+0 24268-4 0 9991 2 19574 82.5345 8.1261 0019093 279.5048 147.0030 14.85697352 6382 SL-16 R/B 1 19650U 88102B 26104.36356910 -.00000048 00000+0 -26425-6 0 9994 2 19650 70.9987 76.4316 0015993 310.2767 49.6958 14.16160068931943 INTERCOSMOS 24 1 20261U 89080A 26104.62752903 .00000282 00000+0 80079-4 0 9992 2 20261 82.6024 80.9958 1187262 209.3483 143.5598 12.59596397671320 SL-14 R/B 1 20262U 89080C 26104.56281273 .00000217 00000+0 55208-4 0 9997 2 20262 82.5926 150.1665 1230962 102.7957 271.3261 12.50524071664638 DELTA 1 R/B 1 20323U 89089B 26104.83261090 .00000157 00000+0 47660-4 0 9995 2 20323 97.0676 306.5145 0069308 9.6282 350.6226 14.50692089900977 ARIANE 40 R/B 1 20443U 90005H 26104.60114477 .00000133 00000+0 55855-4 0 9998 2 20443 98.3014 164.1793 0011409 97.1720 263.0766 14.39894264897972 DELTA 2 R/B(1) 1 20453U 90008B 26104.82520015 .00037250 00000+0 37193-3 0 9999 2 20453 35.6029 296.8252 0076176 238.7907 120.5347 15.60860304931770 COSMOS 2058 1 20465U 90010A 26104.19845155 .00001529 00000+0 88178-4 0 9990 2 20465 82.4726 12.4437 0008907 204.0491 156.0324 15.11652033947607 SL-14 R/B 1 20466U 90010B 26104.83790265 .00000282 00000+0 31182-4 0 9991 2 20466 82.5024 233.4283 0019898 176.5371 183.5986 14.83604948933845 SL-14 R/B 1 20511U 90018B 26104.62031980 .00000212 00000+0 23660-4 0 9994 2 20511 82.5242 189.5166 0015551 338.6102 21.4460 14.82179277927902 HST 1 20580U 90037B 26104.82332691 .00003872 00000+0 12177-3 0 9991 2 20580 28.4729 153.3994 0002225 156.7878 203.2818 15.30048323778854 SL-16 R/B 1 20625U 90046B 26104.60857116 -.00000287 00000+0 -12345-3 0 9997 2 20625 70.9994 222.4731 0016520 252.8540 107.0773 14.15017190853477 COSMOS 2084 1 20663U 90055A 26104.31760515 .00001264 00000+0 10043-3 0 9990 2 20663 62.7901 214.0405 0011354 203.4732 156.5851 15.05864496941682 SL-6 R/B(2) 1 20666U 90055D 26104.81489362 .00000875 00000+0 77584-4 0 9997 2 20666 62.7806 130.9845 0030702 354.8119 5.2658 15.03759003943627 SL-8 R/B 1 20775U 90078B 26104.84884461 .00008697 00000+0 25652-3 0 9993 2 20775 82.9052 218.7631 0356647 251.8616 104.3470 14.90060015814689 SL-8 R/B 1 21088U 91006B 26104.89264838 .00000121 00000+0 10615-3 0 9995 2 21088 82.9414 143.1256 0021034 295.2924 238.4320 13.77500992769056 OKEAN-3 1 21397U 91039A 26104.78346622 .00001082 00000+0 74099-4 0 9998 2 21397 82.5140 301.8628 0013768 202.2200 157.8432 15.05012181870464 COSMOS 2151 1 21422U 91042A 26104.83480098 .00001065 00000+0 82882-4 0 9993 2 21422 82.4976 48.8022 0010874 302.3617 57.6554 15.00264645868619 SL-14 R/B 1 21423U 91042B 26104.61352172 .00000212 00000+0 23802-4 0 9991 2 21423 82.4958 186.5065 0018395 120.8150 239.4878 14.81864717858395 ERS-1 1 21574U 91050A 26104.77317978 .00000175 00000+0 70569-4 0 9999 2 21574 98.7848 123.9107 0033160 95.2387 265.2585 14.39477137820925 ARIANE 40 R/B 1 21610U 91050F 26104.73832470 .00000147 00000+0 56491-4 0 9992 2 21610 98.1941 155.6086 0002435 349.3227 10.7912 14.42919857824193 INTERCOSMOS 25 1 21819U 91086A 26104.56338132 .00000737 00000+0 13907-3 0 9998 2 21819 82.5992 288.3138 1485955 39.6282 330.4396 12.12113784501035 SL-8 R/B 1 21876U 92008B 26104.87312858 .00000010 00000+0 -57248-5 0 9990 2 21876 82.9262 240.8580 0035303 35.5917 79.8086 13.75970162714399 SL-8 R/B 1 21938U 92020B 26104.79356528 -.00000027 00000+0 -43576-4 0 9993 2 21938 82.9276 126.9493 0028676 194.2583 339.2402 13.75549897706097 USA 81 1 21949U 92023A 26104.77509491 .00000132 00000+0 41562-4 0 9993 2 21949 85.0033 110.6111 0001245 83.6071 276.5264 14.32379798 99951 COSMOS 2219 1 22219U 92076A 26104.80965535 .00000122 00000+0 88550-4 0 9998 2 22219 71.0587 302.5632 0017353 150.6563 209.5538 14.14088864723482 SL-16 R/B 1 22220U 92076B 26104.79476273 .00000207 00000+0 12697-3 0 9996 2 22220 70.9978 112.3203 0011475 31.0775 141.2053 14.16866057726941 COSMOS 2221 1 22236U 92080A 26104.81632742 .00001157 00000+0 99741-4 0 9997 2 22236 82.5028 244.4653 0015583 73.4931 286.8002 14.96358267786197 SL-16 R/B 1 22285U 92093B 26104.85184203 -.00000128 00000+0 -41350-4 0 9995 2 22285 71.0201 288.3518 0006448 257.3886 102.6516 14.15453596718277 COSMOS 2228 1 22286U 92094A 26104.80840465 .00001246 00000+0 10464-3 0 9992 2 22286 82.5205 202.7313 0018153 175.9766 184.1607 14.97378684781461 SL-16 R/B 1 22566U 93016B 26104.82522999 .00000015 00000+0 32137-4 0 9994 2 22566 71.0063 139.2897 0012680 268.8050 91.1620 14.15313965707286 COSMOS 2242 1 22626U 93024A 26104.80640384 .00001183 00000+0 10101-3 0 9990 2 22626 82.5190 232.1632 0016348 179.1029 181.0226 14.96712110785793 SL-16 R/B 1 22803U 93059B 26104.82616655 -.00000007 00000+0 20273-4 0 9998 2 22803 70.9895 294.9223 0016379 162.4201 197.7493 14.17239319684657 ARIANE 40 R/B 1 22830U 93061H 26104.80072789 .00000113 00000+0 57209-4 0 9999 2 22830 98.4855 172.9641 0011006 171.2148 188.9231 14.32880228699271 COSMOS 2278 1 23087U 94023A 26104.73751223 .00000334 00000+0 19894-3 0 9994 2 23087 71.0508 99.6777 0009774 322.2878 37.7558 14.14379542649900 SL-16 R/B 1 23088U 94023B 26104.13146107 -.00000219 00000+0 -88680-4 0 9992 2 23088 71.0025 356.4578 0005611 255.1957 104.8544 14.15019300651106 SL-16 R/B 1 23343U 94074B 26104.86387155 .00000230 00000+0 37362-4 0 9994 2 23343 97.7055 134.2076 0008095 101.5492 71.3739 14.79448412692592 SL-16 R/B 1 23405U 94077B 26104.87657718 .00000134 00000+0 93132-4 0 9992 2 23405 70.9811 276.3567 0001090 161.2451 198.8712 14.15566981621357 ARIANE 40+ R/B 1 23561U 95021B 26104.82504744 .00000145 00000+0 60186-4 0 9995 2 23561 98.4441 175.8071 0007398 42.9688 69.1419 14.39798158624447 SL-16 R/B 1 23705U 95058B 26104.74400087 .00000299 00000+0 17742-3 0 9990 2 23705 71.0191 104.5596 0010604 59.5884 300.6286 14.15502517572952 SL-16 R/B 1 24298U 96051B 26104.22237253 .00000050 00000+0 53859-4 0 9993 2 24298 70.7581 100.0293 0012671 87.8841 272.3730 14.12425119526662 ORBVIEW 2 (SEASTAR) 1 24883U 97037A 26104.87172855 .00000155 00000+0 70040-4 0 9992 2 24883 98.8628 270.1540 0001497 340.9954 19.1174 14.35520173513667 SL-16 R/B 1 25400U 98043G 26104.86561282 .00000019 00000+0 26826-4 0 9993 2 25400 98.8312 58.4993 0008745 270.0326 89.9851 14.26058127444149 SL-16 R/B 1 25407U 98045B 26104.73720712 .00000109 00000+0 79216-4 0 9994 2 25407 71.0090 105.7668 0008871 317.0888 42.9543 14.16198662432201 ISS (ZARYA) 1 25544U 98067A 26104.84437811 .00006957 00000+0 13466-3 0 9998 2 25544 51.6321 253.5853 0006504 313.2650 46.7795 15.48918397561933 CZ-4B R/B 1 25732U 99025C 26104.65467557 .00000017 00000+0 29068-4 0 9998 2 25732 98.6557 148.0720 0036131 240.5139 229.7655 14.18272410393260 OKEAN-O 1 25860U 99039A 26104.61093990 .00000320 00000+0 48705-4 0 9993 2 25860 97.9372 164.1239 0001182 114.8873 245.2462 14.80391633439706 SL-16 R/B 1 25861U 99039B 26104.62463566 .00000275 00000+0 41582-4 0 9990 2 25861 97.9895 163.6538 0015768 137.1976 223.0468 14.81780429442182 DELTA 2 R/B 1 25876U 99041E 26104.82738596 .00000352 00000+0 96863-4 0 9997 2 25876 51.7596 156.9145 0502547 94.9950 270.8523 14.11916366368139 HELIOS 1B 1 25977U 99064A 26104.62835199 .00000826 00000+0 96731-4 0 9999 2 25977 98.1659 7.9228 0000862 37.6871 322.4404 14.87835489690603 TERRA 1 25994U 99068A 26104.89688527 .00000226 00000+0 55016-4 0 9997 2 25994 97.9520 156.9346 0003596 78.4236 94.4395 14.61052786400367 SL-16 R/B 1 26070U 00006B 26104.47939374 -.00000257 00000+0 -10628-3 0 9995 2 26070 71.0045 22.5818 0014760 132.7396 227.4973 14.15829472353625 TITAN 4B R/B 1 26474U 00047B 26104.80313670 .00001608 00000+0 10566-3 0 9990 2 26474 67.9869 298.9364 0041320 353.6854 6.3768 15.09864206398365 ENVISAT 1 27386U 02009A 26104.82937227 .00000038 00000+0 26039-4 0 9994 2 27386 98.3784 57.5799 0001155 84.0563 294.4729 14.39049404264374 IDEFIX & ARIANE 42P R/B 1 27422U 02021B 26104.29455725 .00000136 00000+0 68083-4 0 9992 2 27422 98.5908 42.4844 0013009 83.0232 277.2430 14.31050439249117 AQUA 1 27424U 02022A 26104.88244485 .00000497 00000+0 10885-3 0 9995 2 27424 98.4231 72.9238 0001780 107.4840 280.3892 14.62058610274029 CZ-4B R/B 1 27432U 02024C 26104.88586791 .00000007 00000+0 26763-4 0 9995 2 27432 98.8765 158.0972 0049050 280.3803 253.6555 14.14554041234354 MIDORI II (ADEOS-II) 1 27597U 02056A 26104.85579299 .00000156 00000+0 79194-4 0 9995 2 27597 98.7828 63.5980 0000248 137.9159 222.2042 14.29312721215468 H-2A R/B 1 27601U 02056E 26104.66877683 .00000190 00000+0 80986-4 0 9997 2 27601 98.3261 63.6787 0071257 54.9725 117.0683 14.33786728219263 CZ-4B R/B 1 28059U 03049C 26104.69258494 .00000214 00000+0 60521-4 0 9994 2 28059 98.6899 101.0179 0049157 121.1333 239.4698 14.55052386191836 CZ-2C R/B 1 28222U 04012C 26104.43910024 .00041500 00000+0 35763-3 0 9995 2 28222 97.7157 173.2292 0013986 174.1538 185.9889 15.69052888209872 SL-16 R/B 1 28353U 04021B 26104.87397197 .00000038 00000+0 44595-4 0 9993 2 28353 71.0005 156.5603 0006260 322.8921 37.1767 14.14605554127953 CZ-4B R/B 1 28415U 04035C 26104.82911315 .00004126 00000+0 14407-3 0 9996 2 28415 97.3440 138.6425 0031213 197.0868 162.9325 15.29686842185437 CZ-2C R/B 1 28480U 04046B 26104.52606970 .00000089 00000+0 47976-4 0 9997 2 28480 98.1974 17.2765 0140410 49.2451 312.0820 14.27006539113610 ARIANE 5 R/B 1 28499U 04049H 26104.74139330 .00000495 00000+0 61339-4 0 9995 2 28499 98.2677 274.5613 0083032 233.7165 125.6359 14.85336066151149 CZ-2D R/B 1 28738U 05024B 26104.78006390 .00029845 00000+0 32282-3 0 9992 2 28738 97.3553 121.3376 0003021 207.5190 152.5909 15.63550174145418 ALOS (DAICHI) 1 28931U 06002A 26104.85455638 .00000648 00000+0 11655-3 0 9996 2 28931 98.1274 60.6456 0001562 113.0826 247.0544 14.69918850 78796 H-2A R/B 1 28932U 06002B 26104.82572328 .00005612 00000+0 27624-3 0 9999 2 28932 98.2478 254.9954 0052622 118.4328 242.2220 15.17233834 99915 RESURS-DK 1 1 29228U 06021A 26104.83477213 .00001058 00000+0 65996-4 0 9992 2 29228 69.9298 143.5136 0002452 6.7217 353.3982 15.12947475 92994 CZ-4B R/B 1 29507U 06046C 26104.62210332 .00002406 00000+0 12259-3 0 9994 2 29507 97.5527 149.4291 0034161 141.0158 219.3548 15.17271200 65497 CZ-2C R/B 1 31114U 07010B 26104.79641750 .00000059 00000+0 45751-4 0 9999 2 31114 98.4020 216.2723 0058920 188.1020 171.9211 14.20259671984844 COSMO-SKYMED 1 1 31598U 07023A 26104.83366118 .00001218 00000+0 11166-3 0 9996 2 31598 97.8880 296.1632 0001425 86.2604 273.8780 14.96798405 20319 COSMOS 2428 1 31792U 07029A 26104.78173796 -.00000122 00000+0 -39881-4 0 9990 2 31792 70.9400 127.5904 0009521 238.6406 121.3784 14.12948195969192 SL-16 R/B 1 31793U 07029B 26104.71343623 -.00000160 00000+0 -58098-4 0 9995 2 31793 70.9728 96.6587 0002761 272.5278 259.9563 14.14841426970468 KORONAS-FOTON 1 33504U 09003A 26104.80218206 .00008051 00000+0 17350-3 0 9999 2 33504 82.4293 238.3019 0010761 30.8527 329.3351 15.44340833951311 CZ-2C R/B 1 37731U 11030B 26104.88641538 .00000560 00000+0 77099-4 0 9998 2 37731 97.8602 61.4434 0051215 231.6044 189.9500 14.81338731795452 H-2A R/B 1 38341U 12025E 26104.86388854 .00001902 00000+0 17519-3 0 9999 2 38341 98.4788 74.8277 0043900 192.4524 167.5614 14.95402516753623 SHIJIAN-16 (SJ-16) 1 39358U 13057A 26104.82839367 .00000094 00000+0 12065-4 0 9993 2 39358 74.9705 116.6692 0015716 19.4520 340.7265 14.92456595676897 SL-4 R/B 1 39679U 14021B 26104.51820773 .00007375 00000+0 16321-3 0 9995 2 39679 51.6059 162.3211 0093313 233.9107 125.3210 15.40450973661793 ALOS-2 1 39766U 14029A 26104.83477626 .00000362 00000+0 55339-4 0 9992 2 39766 97.9193 202.9065 0001814 89.1435 270.9984 14.79477568642211 YAOGAN-29 1 41038U 15069A 26104.82412072 -.00000031 00000+0 28479-5 0 9995 2 41038 98.0095 133.3422 0000921 159.1681 200.9570 14.83032156561233 ASTRO-H (HITOMI) 1 41337U 16012A 26104.32677802 .00001706 00000+0 96073-4 0 9998 2 41337 30.9979 126.5292 0009569 329.5257 30.4825 15.10224590557622 HXMT (HUIYAN) 1 42758U 17034A 26104.64554003 .00002354 00000+0 12444-3 0 9992 2 42758 43.0133 176.6999 0030369 102.5734 257.8514 15.17924790488009 SAOCOM 1A 1 43641U 18076A 26104.81112116 .00000591 00000+0 80827-4 0 9997 2 43641 97.8907 292.4744 0001443 91.8488 268.2890 14.82147350406710 H-2A R/B 1 43682U 18084L 26104.87406186 .00010612 00000+0 24205-3 0 9992 2 43682 98.8678 330.0330 0023087 256.4990 103.3680 15.42884545411359 SAOCOM 1B 1 46265U 20059A 26104.84238134 -.00000001 00000+0 64442-5 0 9991 2 46265 97.8894 291.6001 0001471 84.1454 275.9927 14.82159052304104 CSS (TIANHE) 1 48274U 21035A 26104.84996935 .00016086 00000+0 17964-3 0 9992 2 48274 41.4685 347.8435 0005562 209.4927 150.5599 15.62394233283263 COSMOS 2550 1 48865U 21056A 26104.18587058 -.00000180 00000+0 36684-6 0 9992 2 48865 67.1432 293.5083 0008374 268.8034 91.2161 15.33831095268902 CZ-2C R/B 1 52794U 22058K 26104.80515895 .00022823 00000+0 30459-3 0 9998 2 52794 50.1865 132.1202 0040379 355.4659 4.5942 15.56978256215753 CZ-2C R/B 1 54039U 22132E 26104.46696833 .00027045 00000+0 27187-3 0 9994 2 54039 97.2943 108.9642 0013693 323.5181 36.5144 15.65315361195961 GSLV R/B 1 54149U 22138AN 26104.61942369 .00001493 00000+0 12674-3 0 9991 2 54149 87.3835 154.3279 0022407 27.6774 332.5645 14.96988896189305 XRISM 1 57800U 23137A 26104.88984993 .00003018 00000+0 16634-3 0 9991 2 57800 31.0026 49.4392 0007533 43.2679 316.8550 15.11912363143271 ACS3 1 59588U 24077B 26104.54937875 .00002786 00000+0 21868-2 0 9995 2 59588 97.1910 37.6042 0072226 359.7596 0.3522 13.91258553 99180 HTV-X1 1 66174U 25241A 26104.77668913 .00004085 00000+0 13918-3 0 9999 2 66174 51.6355 259.0566 0007486 312.6087 47.4262 15.32643759 26475 SZ-21 MODULE 1 66515U 25246C 26104.37722752 .00023082 00000+0 17761-3 0 9999 2 66515 41.4754 343.2008 0004464 270.1131 89.9200 15.71436238 23680